Regional Weather Roundup
Issued by NWS Kansas City/Pleasant Hill, MO

Home | Current Version | Previous Version | Text Only | Print | Product List | Glossary On
Versions: 1 2 3 4 5 6 7 8 9 10 11 12 13 14 15 16 17 18 19 20 21 22 23 24 25 26 27 28
000
ASUS43 KEAX 301110
RWREAX

WEATHER ROUNDUP FOR EASTERN KANSAS AND NORTHWEST MISSOURI
NATIONAL WEATHER SERVICE KANSAS CITY/PLEASANT HILL MO
600 AM CDT MON MAY 30 2016

KSZ040-057-103>105-MOZ028-029-037-043-301200-
...KANSAS CITY METROPOLITAN AREA...

CITY           SKY/WX    TMP DP  RH WIND       PRES   REMARKS
K.C. INTL      PTCLDY    64  61  90 S5        30.03S
K.C. DOWNTOWN  CLEAR     65  62  90 CALM      30.03R
LEES SUMMIT    CLEAR     66  63  90 CALM      30.05R
OLATHE - IXD   CLEAR     63  62  97 S5        30.04R
OLATHE - OJC   CLEAR     61  60  97 S5        30.04R
LAWRENCE       CLEAR     60  59  96 CALM      30.04R

$$

MOZ001>008-011>017-020>025-030>033-038>040-044>046-053-054-301200-
...NORTHERN AND CENTRAL MISSOURI...

CITY           SKY/WX    TMP DP  RH WIND       PRES   REMARKS
ST. JOSEPH     CLEAR     63  61  93 S3        30.03R
MOSBY          SUNNY     59  59 100 CALM      30.04R
WARRENSBURG      N/A     61  61 100 CALM      30.05R FOG
WHITEMAN AFB   CLEAR     64  64 100 SW6       30.04R
CLINTON        CLEAR     63  63 100 CALM      30.06R
SEDALIA        CLEAR     66  63  90 S7        30.06R
WARSAW         NOT AVBL
CHILLICOTHE      N/A     63  61  93 CALM      30.05R
KIRKSVILLE     CLEAR     61  59  93 SW5       30.05R

$$

MOZ041-047>049-056>058-063>065-088>090-097-301200-
...EASTERN AND SOUTHERN MISSOURI...

CITY           SKY/WX    TMP DP  RH WIND       PRES   REMARKS
ST. LOUIS INTL PTCLDY    67  61  81 CALM      30.06R
SPIRIT OF STL  PTCLDY    62  61  96 CALM      30.05R
COLUMBIA       CLEAR     64  63  96 S5        30.06R
JEFFERSON CITY CLEAR     63  62  97 CALM      30.06R
ROLLA          CLEAR     62  60  93 S8        30.07R
SPRINGFIELD    CLOUDY    64  60  87 SE5       30.07R
JOPLIN         CLOUDY    64  62  93 S3        30.06R
WEST PLAINS    CLEAR     61  57  87 CALM      30.11R

$$

IAZ060-094-KSZ022-034>040-054-083-096-NEZ052-066-093-301200-
...KANSAS...SOUTHEAST NEBRASKA AND IOWA...

CITY           SKY/WX    TMP DP  RH WIND       PRES   REMARKS
TOPEKA         CLEAR     63  61  93 CALM      30.03R
MANHATTAN      MOCLDY    61  58  90 CALM      30.00F
EMPORIA        CLEAR     60  60 100 S5        30.03S FOG
CHANUTE        CLOUDY    64  61  90 S5        30.02F
WICHITA        CLOUDY    65  59  81 S3        30.02S
OMAHA          PTCLDY    62  58  86 CALM      29.99R
LINCOLN        CLEAR     61  57  87 S3        30.02R
FALLS CITY     CLEAR     65  62  90 S9        30.00R
LAMONI         CLEAR     62  60  93 SW7       30.03R
DES MOINES     CLOUDY    65  59  81 S6        30.00R

$$





USA.gov is the U.S. government's official web portal to all federal, state and local government web resources and services.